When you browse on this site, cookies collect data to enhance your experience and personalize the content and advertising you see.
Visit our Privacy Policy to learn more. By continuing to use the site, you agree to this use of cookies and data.
  • In Schweiz
  • Länderverzeichnis
  • Für 7 Tage
  • Wassertemperatur
  • Wetterkarte
  • Widgets
  • user-avatar
    Anmelden

    Stündliche Wetter Gent

    Heute, 25 Februar, Dienstag

    Zeit Temperatur Niederschläge Wind Luftdruck Luftfeuchtigkeit
    00:00 +9°C° 0 mm 7 m/S 752 mmHg 76%
    01:00 +8°C° 0.1 mm 7 m/S 752 mmHg 75%
    02:00 +8°C° 0.1 mm 6 m/S 752 mmHg 74%
    03:00 +7°C° 0.1 mm 6 m/S 751 mmHg 74%
    04:00 +7°C° 0 mm 6 m/S 751 mmHg 73%
    05:00 +5°C° 0 mm 6 m/S 751 mmHg 72%
    06:00 +5°C° 0 mm 6 m/S 751 mmHg 71%
    07:00 +5°C° 0 mm 6 m/S 751 mmHg 68%
    08:00 +5°C° 0 mm 7 m/S 751 mmHg 65%
    09:00 +6°C° 0 mm 8 m/S 750 mmHg 61%
    10:00 +6°C° 0.1 mm 8 m/S 750 mmHg 62%
    11:00 +6°C° 0.1 mm 8 m/S 750 mmHg 63%
    12:00 +7°C° 0.1 mm 9 m/S 750 mmHg 64%
    13:00 +7°C° 0.1 mm 8 m/S 749 mmHg 60%
    14:00 +7°C° 0.1 mm 8 m/S 748 mmHg 56%
    15:00 +8°C° 0.1 mm 7 m/S 748 mmHg 51%
    16:00 +6°C° 0.2 mm 7 m/S 748 mmHg 59%
    17:00 +5°C° 0.2 mm 6 m/S 747 mmHg 67%
    18:00 +5°C° 0.2 mm 5 m/S 747 mmHg 74%
    19:00 +3°C° 0.7 mm 6 m/S 746 mmHg 78%
    20:00 +2°C° 0.7 mm 7 m/S 746 mmHg 82%
    21:00 +1°C° 0.7 mm 8 m/S 745 mmHg 86%
    22:00 0°C° 0.7 mm 9 m/S 745 mmHg 87%
    23:00 0°C° 0.7 mm 9 m/S 745 mmHg 87%

    Morgen, 26 Februar, Mittwoch

    Zeit Temperatur Niederschläge Wind Luftdruck Luftfeuchtigkeit
    00:00 -2°C° 0.7 mm 10 m/S 745 mmHg 87%
    01:00 0°C° 1.8 mm 9 m/S 745 mmHg 87%
    02:00 0°C° 1.8 mm 9 m/S 744 mmHg 86%
    03:00 0°C° 1.8 mm 9 m/S 744 mmHg 86%
    04:00 -1°C° 0.4 mm 9 m/S 745 mmHg 87%
    05:00 -1°C° 0.4 mm 9 m/S 745 mmHg 89%
    06:00 -1°C° 0.4 mm 8 m/S 746 mmHg 91%
    07:00 0°C° 0.5 mm 8 m/S 747 mmHg 87%
    08:00 0°C° 0.5 mm 8 m/S 747 mmHg 84%
    09:00 +1°C° 0.5 mm 8 m/S 748 mmHg 81%
    10:00 +1°C° 0.1 mm 8 m/S 749 mmHg 77%
    11:00 +2°C° 0.1 mm 8 m/S 750 mmHg 74%
    12:00 +2°C° 0.1 mm 8 m/S 751 mmHg 71%
    13:00 +3°C° 0.1 mm 7 m/S 751 mmHg 70%
    14:00 +4°C° 0.1 mm 7 m/S 751 mmHg 70%
    15:00 +4°C° 0.1 mm 6 m/S 752 mmHg 70%
    16:00 +3°C° 0.2 mm 6 m/S 753 mmHg 72%
    17:00 +3°C° 0.2 mm 5 m/S 753 mmHg 75%
    18:00 +3°C° 0.2 mm 4 m/S 754 mmHg 77%
    19:00 +2°C° 0.2 mm 5 m/S 754 mmHg 77%
    20:00 +2°C° 0.2 mm 5 m/S 755 mmHg 77%
    21:00 +1°C° 0.2 mm 5 m/S 755 mmHg 78%
    22:00 +1°C° 0 mm 4 m/S 755 mmHg 77%
    23:00 +1°C° 0 mm 4 m/S 755 mmHg 76%

    übermorgen, 27 Februar, Donnerstag

    Zeit Temperatur Niederschläge Wind Luftdruck Luftfeuchtigkeit
    00:00 0°C° 0 mm 4 m/S 755 mmHg 76%
    01:00 0°C° 0 mm 4 m/S 754 mmHg 76%
    02:00 0°C° 0 mm 4 m/S 754 mmHg 76%
    03:00 0°C° 0 mm 5 m/S 753 mmHg 76%
    04:00 0°C° 0 mm 5 m/S 752 mmHg 81%
    05:00 -1°C° 0 mm 6 m/S 751 mmHg 86%
    06:00 -1°C° 0 mm 7 m/S 750 mmHg 91%
    07:00 -1°C° 1 mm 7 m/S 748 mmHg 93%
    08:00 -1°C° 1 mm 7 m/S 747 mmHg 94%
    09:00 -2°C° 1 mm 8 m/S 745 mmHg 95%
    10:00 -2°C° 2.9 mm 7 m/S 743 mmHg 96%
    11:00 -2°C° 2.9 mm 7 m/S 742 mmHg 97%
    12:00 -2°C° 2.9 mm 6 m/S 740 mmHg 98%
    13:00 -2°C° 0.4 mm 7 m/S 741 mmHg 98%
    14:00 -1°C° 0.4 mm 8 m/S 741 mmHg 97%
    15:00 -1°C° 0.4 mm 9 m/S 742 mmHg 96%
    16:00 -1°C° 0.2 mm 9 m/S 744 mmHg 93%
    17:00 0°C° 0.2 mm 9 m/S 746 mmHg 91%
    18:00 0°C° 0.2 mm 9 m/S 749 mmHg 88%
    19:00 0°C° 0.1 mm 7 m/S 750 mmHg 85%
    20:00 +1°C° 0.1 mm 6 m/S 751 mmHg 81%
    21:00 +1°C° 0.1 mm 5 m/S 753 mmHg 78%
    22:00 +1°C° 0 mm 5 m/S 754 mmHg 79%
    23:00 +1°C° 0 mm 5 m/S 755 mmHg 81%

    28 Februar, Freitag

    Zeit Temperatur Niederschläge Wind Luftdruck Luftfeuchtigkeit
    00:00 0°C° 0 mm 5 m/S 756 mmHg 83%
    01:00 0°C° 0 mm 5 m/S 757 mmHg 84%
    02:00 0°C° 0 mm 5 m/S 757 mmHg 85%
    03:00 0°C° 0 mm 4 m/S 758 mmHg 86%
    04:00 0°C° 0 mm 4 m/S 758 mmHg 87%
    05:00 0°C° 0 mm 4 m/S 759 mmHg 87%
    06:00 -1°C° 0 mm 4 m/S 759 mmHg 88%
    07:00 0°C° 0 mm 4 m/S 759 mmHg 86%
    08:00 +1°C° 0 mm 4 m/S 760 mmHg 85%
    09:00 +1°C° 0 mm 4 m/S 760 mmHg 83%
    10:00 +3°C° 0 mm 4 m/S 760 mmHg 80%
    11:00 +4°C° 0 mm 4 m/S 760 mmHg 76%
    12:00 +5°C° 0 mm 4 m/S 760 mmHg 72%
    13:00 +5°C° 0 mm 4 m/S 759 mmHg 72%
    14:00 +5°C° 0 mm 4 m/S 759 mmHg 72%
    15:00 +5°C° 0 mm 4 m/S 758 mmHg 72%
    16:00 +5°C° 0 mm 4 m/S 758 mmHg 75%
    17:00 +4°C° 0 mm 4 m/S 757 mmHg 79%
    18:00 +3°C° 0 mm 4 m/S 757 mmHg 82%
    19:00 +2°C° 0.2 mm 5 m/S 756 mmHg 86%
    20:00 +2°C° 0.2 mm 5 m/S 755 mmHg 90%
    21:00 +1°C° 0.2 mm 6 m/S 755 mmHg 95%
    22:00 +2°C° 0.1 mm 6 m/S 753 mmHg 93%
    23:00 +2°C° 0.1 mm 6 m/S 752 mmHg 92%

    29 Februar, Samstag

    Zeit Temperatur Niederschläge Wind Luftdruck Luftfeuchtigkeit
    00:00 +3°C° 0.1 mm 6 m/S 751 mmHg 90%
    01:00 +3°C° 0.3 mm 6 m/S 750 mmHg 92%
    02:00 +4°C° 0.3 mm 6 m/S 749 mmHg 94%
    03:00 +5°C° 0.3 mm 6 m/S 747 mmHg 95%
    04:00 +6°C° 0 mm 7 m/S 747 mmHg 93%
    05:00 +6°C° 0 mm 7 m/S 746 mmHg 91%
    06:00 +7°C° 0 mm 8 m/S 745 mmHg 89%
    07:00 +7°C° 0.2 mm 8 m/S 743 mmHg 89%
    08:00 +7°C° 0.2 mm 8 m/S 742 mmHg 88%
    09:00 +7°C° 0.2 mm 8 m/S 741 mmHg 87%
    10:00 +7°C° 1.2 mm 9 m/S 740 mmHg 85%
    11:00 +6°C° 1.2 mm 9 m/S 740 mmHg 83%
    12:00 +5°C° 1.2 mm 10 m/S 739 mmHg 81%
    13:00 +5°C° 0.3 mm 10 m/S 740 mmHg 75%
    14:00 +4°C° 0.3 mm 11 m/S 741 mmHg 69%
    15:00 +6°C° 0.3 mm 11 m/S 742 mmHg 62%
    16:00 +5°C° 0.2 mm 10 m/S 743 mmHg 64%
    17:00 +3°C° 0.2 mm 9 m/S 744 mmHg 66%
    18:00 +2°C° 0.2 mm 8 m/S 745 mmHg 68%
    19:00 +2°C° 0.1 mm 8 m/S 745 mmHg 69%
    20:00 +1°C° 0.1 mm 8 m/S 746 mmHg 69%
    21:00 +1°C° 0.1 mm 8 m/S 746 mmHg 70%
    22:00 +1°C° 0.5 mm 8 m/S 746 mmHg 76%
    23:00 +1°C° 0.5 mm 9 m/S 746 mmHg 82%

    1 März, Sonntag

    Zeit Temperatur Niederschläge Wind Luftdruck Luftfeuchtigkeit
    00:00 +1°C° 0.5 mm 10 m/S 746 mmHg 88%
    01:00 0°C° 0.9 mm 9 m/S 746 mmHg 89%
    02:00 0°C° 0.9 mm 9 m/S 746 mmHg 90%
    03:00 0°C° 0.9 mm 9 m/S 746 mmHg 92%
    04:00 0°C° 0.7 mm 8 m/S 747 mmHg 91%
    05:00 +1°C° 0.7 mm 8 m/S 747 mmHg 90%
    06:00 +1°C° 0.7 mm 8 m/S 747 mmHg 89%
    07:00 +1°C° 0.8 mm 8 m/S 747 mmHg 89%
    08:00 +1°C° 0.8 mm 8 m/S 746 mmHg 89%
    09:00 +1°C° 0.8 mm 8 m/S 746 mmHg 89%
    10:00 +2°C° 0.5 mm 8 m/S 746 mmHg 85%
    11:00 +2°C° 0.5 mm 9 m/S 746 mmHg 82%
    12:00 +3°C° 0.5 mm 9 m/S 745 mmHg 78%
    13:00 +4°C° 0.4 mm 8 m/S 745 mmHg 79%
    14:00 +5°C° 0.4 mm 8 m/S 744 mmHg 79%
    15:00 +5°C° 0.4 mm 7 m/S 744 mmHg 80%
    16:00 +5°C° 0.5 mm 7 m/S 744 mmHg 82%
    17:00 +4°C° 0.5 mm 6 m/S 743 mmHg 85%
    18:00 +4°C° 0.5 mm 6 m/S 743 mmHg 87%
    19:00 +3°C° 0.1 mm 6 m/S 744 mmHg 85%
    20:00 +3°C° 0.1 mm 6 m/S 744 mmHg 82%
    21:00 +2°C° 0.1 mm 6 m/S 744 mmHg 79%
    22:00 +2°C° 0 mm 6 m/S 745 mmHg 80%
    23:00 +2°C° 0 mm 6 m/S 745 mmHg 82%
    Mehr zeigen